EW4431 Weather Reports


Display with metric or nautical units.
time (UTC)temp
F
wind
direction
speed
MPH
gust
MPH
rain 1hr
in
rain 24hr
in
rain mn
in
humidity
%
barometer
mb
20260506134540 61 89 0.0 4.0 0.00 0.00 0.00 47 1013.4
20260506133040 59 104 0.0 3.0 0.00 0.00 0.00 52 1013.3
20260506131544 56 9 0.0 1.0 0.00 0.00 0.00 58 1013.1
20260506130034 0 0.0 0.0 0.00 0.00 0.00 1013.0
20260506124526 0 0.0 0.0 0.00 0.00 0.00 1012.9
20260506123033 0 0.0 0.0 0.00 0.00 0.00 1012.7
20260506121517 0 0.0 0.0 0.00 0.00 0.00 1012.5
20260506120023 53 8 0.0 0.0 0.00 0.00 0.00 58 1012.4
20260506114518 54 6 0.0 0.0 0.00 0.00 0.00 59 1012.4
20260506113010 55 6 0.0 0.0 0.00 0.00 0.00 58 1012.4
20260506111508 55 6 0.0 0.0 0.00 0.00 0.00 57 1012.3
20260506110007 55 6 0.0 0.0 0.00 0.00 0.00 58 1012.2
20260506104535 55 6 0.0 0.0 0.00 0.00 0.00 60 1012.1
20260506103033 55 6 0.0 0.0 0.00 0.00 0.00 60 1012.0
20260506101533 55 6 0.0 0.0 0.00 0.00 0.00 59 1011.8
20260506100026 56 6 0.0 0.0 0.00 0.00 0.00 57 1011.8
20260506094527 56 6 0.0 0.0 0.00 0.00 0.00 57 1011.7
20260506093030 56 6 0.0 0.0 0.00 0.00 0.00 55 1011.5
20260506091519 56 6 0.0 0.0 0.00 0.00 0.00 55 1011.5
20260506090016 56 6 0.0 0.0 0.00 0.00 0.00 53 1011.4
20260506084513 58 6 0.0 0.0 0.00 0.00 0.00 52 1011.4
20260506083012 58 6 0.0 0.0 0.00 0.00 0.00 51 1011.4
20260506081513 57 6 0.0 0.0 0.00 0.00 0.00 51 1011.3
20260506073001 59 6 0.0 0.0 0.00 0.00 0.00 46 1011.2
20260506071557 59 6 0.0 0.0 0.00 0.00 0.00 46 1011.0
20260506061546 63 6 0.0 0.0 0.00 0.00 0.00 39 1010.7
20260506044518 67 287 0.0 1.0 0.00 0.00 0.00 32 1010.0
20260506043015 68 270 0.0 4.0 0.00 0.00 0.00 31 1009.9
20260506041511 69 288 1.0 4.0 0.00 0.00 0.00 30 1009.7
20260506040009 69 256 0.0 5.0 0.00 0.00 0.00 29 1009.5
20260506034507 69 230 1.0 4.0 0.00 0.00 0.00 29 1009.4
20260506033005 70 257 1.0 5.0 0.00 0.00 0.00 29 1009.2
20260506031501 70 268 1.0 4.0 0.00 0.00 0.00 28 1008.9
20260506030059 70 289 1.0 5.0 0.00 0.00 0.00 28 1008.8
20260506024558 71 268 2.0 6.0 0.00 0.00 0.00 27 1008.5
20260506023104 71 276 3.0 9.0 0.00 0.00 0.00 27 1008.3
20260506021554 72 274 1.0 6.0 0.00 0.00 0.00 27 1008.1
20260506020055 73 268 1.0 5.0 0.00 0.00 0.00 26 1007.9
20260506014550 73 180 4.0 10.0 0.00 0.00 0.00 26 1007.7
20260506013103 75 267 1.0 8.0 0.00 0.00 0.00 26 1007.6
20260506011552 76 284 2.0 9.0 0.00 0.00 0.00 26 1007.5
20260506010044 76 257 3.0 11.0 0.00 0.00 0.00 25 1007.3
20260506004517 77 285 4.0 12.0 0.00 0.00 0.00 24 1007.3
20260506003014 77 290 2.0 10.0 0.00 0.00 0.00 26 1007.2
20260506001513 77 255 4.0 9.0 0.00 0.00 0.00 25 1007.0
20260506000014 76 262 1.0 9.0 0.00 0.00 0.00 26 1007.0
20260505234511 77 271 4.0 9.0 0.00 0.00 0.00 25 1007.0
20260505233009 75 288 6.0 12.0 0.00 0.00 0.00 26 1007.0
20260505231510 77 252 3.0 13.0 0.00 0.00 0.00 27 1007.0
20260505230004 77 307 3.0 10.0 0.00 0.00 0.00 28 1007.1
20260505224503 77 308 4.0 11.0 0.00 0.00 0.00 27 1007.1
20260505223058 76 286 3.0 10.0 0.00 0.00 0.00 28 1007.2
20260505221557 78 320 3.0 10.0 0.00 0.00 0.00 27 1007.2
20260505220054 77 136 2.0 9.0 0.00 0.00 0.00 27 1007.3
20260505214610 77 250 3.0 11.0 0.00 0.00 0.00 30 1007.6
20260505213026 76 282 2.0 12.0 0.00 0.00 0.00 29 1007.6
20260505211521 76 238 2.0 15.0 0.00 0.00 0.00 28 1007.9
20260505210017 76 280 2.0 9.0 0.00 0.00 0.00 29 1008.0
20260505204513 77 262 4.0 10.0 0.00 0.00 0.00 29 1008.1
20260505203023 75 281 2.0 7.0 0.00 0.00 0.00 34 1008.2
20260505201511 76 291 1.0 7.0 0.00 0.00 0.00 34 1008.2
20260505200005 77 283 3.0 9.0 0.00 0.00 0.00 36 1008.4
20260505194503 75 287 4.0 13.0 0.00 0.00 0.00 36 1008.4
20260505193002 75 292 3.0 9.0 0.00 0.00 0.00 35 1008.5
20260505191502 75 282 4.0 15.0 0.00 0.00 0.00 35 1008.7
20260505184553 74 233 2.0 7.0 0.00 0.00 0.00 39 1009.0
20260505183112 74 271 2.0 15.0 0.00 0.00 0.00 40 1009.1
20260505181548 73 255 3.0 8.0 0.00 0.00 0.00 42 1009.1
20260505180045 72 276 2.0 8.0 0.00 0.00 0.00 47 1009.2
20260505174542 71 278 0.0 7.0 0.00 0.00 0.00 50 1009.3
20260505173049 70 266 1.0 7.0 0.00 0.00 0.00 52 1009.3
20260505171546 71 223 2.0 8.0 0.00 0.00 0.00 51 1009.3
20260505170038 71 251 2.0 7.0 0.00 0.00 0.00 50 1009.3
20260505164538 70 252 3.0 8.0 0.00 0.00 0.00 51 1009.3
20260505163037 69 276 3.0 7.0 0.00 0.00 0.00 54 1009.3
20260505161538 68 241 1.0 6.0 0.00 0.00 0.00 55 1009.4
20260505153033 67 264 2.0 5.0 0.00 0.00 0.00 58 1009.3
20260505151536 66 280 0.0 5.0 0.00 0.00 0.00 59 1009.1